STARLINK-34526

Last updated on Thu Jul 03 2025 00:02:07 GMT+0000 (Coordinated Universal Time)

1 64481U 25133K 25183.58335648 -.01132405 00000+0 -55297-2 0 9995 2 64481 53.1562 210.8119 0001061 55.3379 301.3775 15.83983413 2619
UTC large
Height (km)
Speed (km/s)
/
Latitude / Longitude
Inclination (degrees)
Orbital Period (minutes)
Azimuth
Elevation
Range (km)
Doppler Factor

Next 0 passes for location: London (51.5072 / 0.1276)

Sorry there are no passes over London.